ORBITAL FACTORY 2 (OF-2)

Last updated on Sun Mar 19 2023 00:03:07 GMT+0000 (Coordinated Universal Time)

1 45113U 19071C 23077.35065882 .03964643 11991-4 14428-2 0 9999 2 45113 51.6112 123.8014 0006399 20.6751 339.4527 16.23937416176109

Satellite not in orbit